PRIVATE WETTERSTATION BILLIGHEIM-ALLFELD                       ZURCK
Wetterdaten: Donnerstag, 06.11.2014
Datum Zeit Temp. A. Temp. A. min Temp. A. max Feuchte A. Luftdruck Regen Wind Richtung Richtung Sonnenschein ET Solar Taupunkt Windchill Windben Empfang
06.11.2014 00:00 6,2 C 6,2 C 6,2 C 91 % 1008,4 hPa 0,2 l/m 0,0 km/h (0 Bft) SW 225 0 min 0,000 mm 0 W/m 4,8 C 6,2 C 8,0 km/h (2 Bft) 90 %
06.11.2014 00:10 6,2 C 6,2 C 6,2 C 91 % 1008,6 hPa 0,0 l/m 1,6 km/h (1 Bft) SW 225 0 min 0,000 mm 0 W/m 4,8 C 6,2 C 9,7 km/h (2 Bft) 80 %
06.11.2014 00:20 6,2 C 6,2 C 6,2 C 91 % 1008,8 hPa 0,2 l/m 1,6 km/h (1 Bft) SW 225 0 min 0,000 mm 0 W/m 4,8 C 6,2 C 8,0 km/h (2 Bft) 100 %
06.11.2014 00:30 6,2 C 6,2 C 6,2 C 91 % 1008,7 hPa 0,0 l/m 1,6 km/h (1 Bft) SW 225 0 min 0,000 mm 0 W/m 4,8 C 6,2 C 6,4 km/h (2 Bft) 100 %
06.11.2014 00:40 6,2 C 6,2 C 6,3 C 91 % 1008,8 hPa 0,2 l/m 0,0 km/h (0 Bft) W-SW 247 0 min 0,000 mm 0 W/m 4,8 C 6,2 C 4,8 km/h (1 Bft) 100 %
06.11.2014 00:50 6,3 C 6,2 C 6,3 C 91 % 1008,9 hPa 0,2 l/m 0,0 km/h (0 Bft) W-SW 247 0 min 0,000 mm 0 W/m 4,9 C 6,3 C 6,4 km/h (2 Bft) 100 %
06.11.2014 01:00 6,3 C 6,3 C 6,3 C 91 % 1008,7 hPa 0,0 l/m 0,0 km/h (0 Bft) W-SW 247 0 min 0,000 mm 0 W/m 4,9 C 6,3 C 4,8 km/h (1 Bft) 100 %
06.11.2014 01:10 6,3 C 6,3 C 6,3 C 91 % 1008,7 hPa 0,2 l/m 1,6 km/h (1 Bft) W-SW 247 0 min 0,000 mm 0 W/m 4,9 C 6,3 C 6,4 km/h (2 Bft) 100 %
06.11.2014 01:20 6,3 C 6,3 C 6,3 C 91 % 1008,8 hPa 0,0 l/m 0,0 km/h (0 Bft) W-SW 247 0 min 0,000 mm 0 W/m 4,9 C 6,3 C 1,6 km/h (1 Bft) 100 %
06.11.2014 01:30 6,3 C 6,3 C 6,3 C 91 % 1008,8 hPa 0,0 l/m 0,0 km/h (0 Bft) N 0 0 min 0,000 mm 0 W/m 4,9 C 6,3 C 0,0 km/h (0 Bft) 100 %
06.11.2014 01:40 6,3 C 6,3 C 6,3 C 91 % 1009,0 hPa 0,0 l/m 0,0 km/h (0 Bft) W-SW 247 0 min 0,000 mm 0 W/m 4,9 C 6,3 C 3,2 km/h (1 Bft) 100 %
06.11.2014 01:50 6,3 C 6,3 C 6,3 C 91 % 1009,2 hPa 0,2 l/m 1,6 km/h (1 Bft) W-SW 247 0 min 0,000 mm 0 W/m 4,9 C 6,3 C 9,7 km/h (2 Bft) 100 %
06.11.2014 02:00 6,3 C 6,3 C 6,3 C 91 % 1009,3 hPa 0,0 l/m 1,6 km/h (1 Bft) W-SW 247 0 min 0,000 mm 0 W/m 4,9 C 6,3 C 8,0 km/h (2 Bft) 100 %
06.11.2014 02:10 6,3 C 6,3 C 6,3 C 91 % 1009,3 hPa 0,0 l/m 1,6 km/h (1 Bft) SW 225 0 min 0,000 mm 0 W/m 4,9 C 6,3 C 6,4 km/h (2 Bft) 100 %
06.11.2014 02:20 6,3 C 6,3 C 6,3 C 91 % 1009,3 hPa 0,0 l/m 1,6 km/h (1 Bft) SW 225 0 min 0,000 mm 0 W/m 4,9 C 6,3 C 8,0 km/h (2 Bft) 87 %
06.11.2014 02:30 6,3 C 6,3 C 6,3 C 91 % 1009,5 hPa 0,0 l/m 1,6 km/h (1 Bft) W-SW 247 0 min 0,000 mm 0 W/m 4,9 C 6,3 C 8,0 km/h (2 Bft) 100 %
06.11.2014 02:40 6,3 C 6,3 C 6,3 C 91 % 1009,5 hPa 0,0 l/m 3,2 km/h (1 Bft) W-SW 247 0 min 0,000 mm 0 W/m 4,9 C 6,3 C 14,5 km/h (3 Bft) 100 %
06.11.2014 02:50 6,3 C 6,3 C 6,3 C 91 % 1009,6 hPa 0,0 l/m 3,2 km/h (1 Bft) W-SW 247 0 min 0,000 mm 0 W/m 4,9 C 6,3 C 8,0 km/h (2 Bft) 100 %
06.11.2014 03:00 6,3 C 6,3 C 6,3 C 91 % 1009,7 hPa 0,0 l/m 0,0 km/h (0 Bft) W-SW 247 0 min 0,000 mm 0 W/m 4,9 C 6,3 C 1,6 km/h (1 Bft) 100 %
06.11.2014 03:10 6,4 C 6,3 C 6,4 C 91 % 1009,8 hPa 0,0 l/m 1,6 km/h (1 Bft) SW 225 0 min 0,000 mm 0 W/m 5,0 C 6,4 C 6,4 km/h (2 Bft) 100 %
06.11.2014 03:20 6,4 C 6,3 C 6,4 C 91 % 1009,9 hPa 0,0 l/m 4,8 km/h (1 Bft) W 270 0 min 0,000 mm 0 W/m 5,0 C 6,4 C 16,1 km/h (3 Bft) 100 %
06.11.2014 03:30 6,4 C 6,3 C 6,4 C 91 % 1009,7 hPa 0,2 l/m 1,6 km/h (1 Bft) W-SW 247 0 min 0,000 mm 0 W/m 5,0 C 6,4 C 8,0 km/h (2 Bft) 100 %
06.11.2014 03:40 6,3 C 6,3 C 6,4 C 91 % 1009,7 hPa 0,0 l/m 1,6 km/h (1 Bft) W 270 0 min 0,000 mm 0 W/m 4,9 C 6,3 C 9,7 km/h (2 Bft) 100 %
06.11.2014 03:50 6,3 C 6,3 C 6,3 C 91 % 1009,9 hPa 0,0 l/m 0,0 km/h (0 Bft) W-SW 247 0 min 0,000 mm 0 W/m 4,9 C 6,3 C 4,8 km/h (1 Bft) 100 %
06.11.2014 04:00 6,4 C 6,3 C 6,4 C 91 % 1010,0 hPa 0,0 l/m 0,0 km/h (0 Bft) W-SW 247 0 min 0,000 mm 0 W/m 5,0 C 6,4 C 1,6 km/h (1 Bft) 100 %
06.11.2014 04:10 6,3 C 6,3 C 6,4 C 91 % 1009,8 hPa 0,0 l/m 1,6 km/h (1 Bft) W-SW 247 0 min 0,000 mm 0 W/m 4,9 C 6,3 C 9,7 km/h (2 Bft) 100 %
06.11.2014 04:20 6,3 C 6,3 C 6,3 C 91 % 1009,9 hPa 0,0 l/m 1,6 km/h (1 Bft) W-SW 247 0 min 0,000 mm 0 W/m 4,9 C 6,3 C 6,4 km/h (2 Bft) 100 %
06.11.2014 04:30 6,2 C 6,2 C 6,3 C 91 % 1009,8 hPa 0,0 l/m 1,6 km/h (1 Bft) W 270 0 min 0,000 mm 0 W/m 4,8 C 6,2 C 8,0 km/h (2 Bft) 100 %
06.11.2014 04:40 6,2 C 6,2 C 6,3 C 91 % 1010,2 hPa 0,0 l/m 3,2 km/h (1 Bft) W 270 0 min 0,000 mm 0 W/m 4,8 C 6,2 C 9,7 km/h (2 Bft) 100 %
06.11.2014 04:50 6,2 C 6,2 C 6,2 C 91 % 1010,1 hPa 0,0 l/m 1,6 km/h (1 Bft) W 270 0 min 0,000 mm 0 W/m 4,8 C 6,2 C 6,4 km/h (2 Bft) 100 %
06.11.2014 05:00 6,2 C 6,2 C 6,2 C 91 % 1010,2 hPa 0,0 l/m 4,8 km/h (1 Bft) W 270 0 min 0,000 mm 0 W/m 4,8 C 6,2 C 11,3 km/h (2 Bft) 100 %
06.11.2014 05:10 6,2 C 6,2 C 6,2 C 91 % 1010,3 hPa 0,0 l/m 4,8 km/h (1 Bft) W-SW 247 0 min 0,000 mm 0 W/m 4,8 C 6,2 C 9,7 km/h (2 Bft) 100 %
06.11.2014 05:20 6,1 C 6,1 C 6,2 C 91 % 1010,5 hPa 0,0 l/m 3,2 km/h (1 Bft) W 270 0 min 0,000 mm 0 W/m 4,7 C 6,1 C 9,7 km/h (2 Bft) 100 %
06.11.2014 05:30 6,1 C 6,1 C 6,1 C 91 % 1010,5 hPa 0,0 l/m 1,6 km/h (1 Bft) W 270 0 min 0,000 mm 0 W/m 4,7 C 6,1 C 8,0 km/h (2 Bft) 99 %
06.11.2014 05:40 6,1 C 6,1 C 6,1 C 91 % 1010,4 hPa 0,0 l/m 1,6 km/h (1 Bft) W 270 0 min 0,000 mm 0 W/m 4,7 C 6,1 C 4,8 km/h (1 Bft) 100 %
06.11.2014 05:50 6,1 C 6,1 C 6,1 C 91 % 1010,5 hPa 0,0 l/m 0,0 km/h (0 Bft) W 270 0 min 0,000 mm 0 W/m 4,7 C 6,1 C 1,6 km/h (1 Bft) 100 %
06.11.2014 06:00 6,1 C 6,1 C 6,2 C 91 % 1010,7 hPa 0,0 l/m 1,6 km/h (1 Bft) W 270 0 min 0,000 mm 0 W/m 4,7 C 6,1 C 6,4 km/h (2 Bft) 100 %
06.11.2014 06:10 6,1 C 6,1 C 6,1 C 91 % 1010,8 hPa 0,0 l/m 1,6 km/h (1 Bft) W-SW 247 0 min 0,000 mm 0 W/m 4,7 C 6,1 C 8,0 km/h (2 Bft) 100 %
06.11.2014 06:20 6,1 C 6,1 C 6,1 C 91 % 1010,9 hPa 0,0 l/m 1,6 km/h (1 Bft) W-SW 247 0 min 0,000 mm 0 W/m 4,7 C 6,1 C 8,0 km/h (2 Bft) 100 %
06.11.2014 06:30 6,1 C 6,1 C 6,1 C 91 % 1010,9 hPa 0,0 l/m 4,8 km/h (1 Bft) W 270 0 min 0,000 mm 0 W/m 4,7 C 6,1 C 9,7 km/h (2 Bft) 100 %
06.11.2014 06:40 6,1 C 6,1 C 6,1 C 91 % 1010,9 hPa 0,0 l/m 1,6 km/h (1 Bft) W 270 0 min 0,000 mm 0 W/m 4,7 C 6,1 C 8,0 km/h (2 Bft) 100 %
06.11.2014 06:50 6,1 C 6,1 C 6,1 C 91 % 1011,0 hPa 0,0 l/m 1,6 km/h (1 Bft) W 270 0 min 0,000 mm 0 W/m 4,7 C 6,1 C 11,3 km/h (2 Bft) 100 %
06.11.2014 07:00 6,0 C 6,0 C 6,1 C 91 % 1011,1 hPa 0,0 l/m 3,2 km/h (1 Bft) W-SW 247 0 min 0,000 mm 0 W/m 4,6 C 6,0 C 9,7 km/h (2 Bft) 100 %
06.11.2014 07:10 6,0 C 6,0 C 6,1 C 91 % 1011,3 hPa 0,0 l/m 1,6 km/h (1 Bft) S-SW 202 0 min 0,000 mm 0 W/m 4,6 C 6,0 C 8,0 km/h (2 Bft) 100 %
06.11.2014 07:20 6,0 C 6,0 C 6,1 C 91 % 1011,3 hPa 0,0 l/m 0,0 km/h (0 Bft) S-SW 202 0 min 0,000 mm 0 W/m 4,6 C 6,0 C 6,4 km/h (2 Bft) 100 %
06.11.2014 07:30 6,0 C 5,9 C 6,0 C 91 % 1011,6 hPa 0,0 l/m 0,0 km/h (0 Bft) N 0 0 min 0,000 mm 0 W/m 4,6 C 6,0 C 0,0 km/h (0 Bft) 100 %
06.11.2014 07:40 6,0 C 5,9 C 6,0 C 91 % 1011,8 hPa 0,0 l/m 0,0 km/h (0 Bft) S-SW 202 0 min 0,000 mm 5 W/m 4,6 C 6,0 C 4,8 km/h (1 Bft) 100 %
06.11.2014 07:50 6,0 C 6,0 C 6,0 C 91 % 1012,0 hPa 0,0 l/m 1,6 km/h (1 Bft) S-SW 202 0 min 0,000 mm 5 W/m 4,6 C 6,0 C 4,8 km/h (1 Bft) 100 %
06.11.2014 08:00 6,0 C 6,0 C 6,1 C 91 % 1012,3 hPa 0,0 l/m 1,6 km/h (1 Bft) S-SW 202 0 min 0,000 mm 11 W/m 4,6 C 6,0 C 8,0 km/h (2 Bft) 100 %
06.11.2014 08:10 6,1 C 6,0 C 6,1 C 91 % 1012,5 hPa 0,0 l/m 3,2 km/h (1 Bft) SW 225 0 min 0,000 mm 18 W/m 4,7 C 6,1 C 9,7 km/h (2 Bft) 100 %
06.11.2014 08:20 6,1 C 6,0 C 6,1 C 91 % 1012,4 hPa 0,0 l/m 3,2 km/h (1 Bft) S-SW 202 0 min 0,000 mm 25 W/m 4,7 C 6,1 C 8,0 km/h (2 Bft) 100 %
06.11.2014 08:30 6,1 C 6,1 C 6,1 C 91 % 1012,7 hPa 0,0 l/m 1,6 km/h (1 Bft) S-SW 202 0 min 0,000 mm 23 W/m 4,7 C 6,1 C 6,4 km/h (2 Bft) 100 %
06.11.2014 08:40 6,1 C 6,1 C 6,1 C 91 % 1012,6 hPa 0,0 l/m 1,6 km/h (1 Bft) S-SW 202 0 min 0,000 mm 39 W/m 4,7 C 6,1 C 4,8 km/h (1 Bft) 100 %
06.11.2014 08:50 6,2 C 6,1 C 6,2 C 91 % 1012,6 hPa 0,0 l/m 1,6 km/h (1 Bft) W-SW 247 0 min 0,000 mm 40 W/m 4,8 C 6,2 C 8,0 km/h (2 Bft) 100 %
06.11.2014 09:00 6,2 C 6,2 C 6,2 C 91 % 1012,6 hPa 0,0 l/m 1,6 km/h (1 Bft) SW 225 0 min 0,025 mm 39 W/m 4,8 C 6,2 C 6,4 km/h (2 Bft) 100 %
06.11.2014 09:10 6,2 C 6,2 C 6,2 C 91 % 1012,8 hPa 0,0 l/m 3,2 km/h (1 Bft) SW 225 0 min 0,000 mm 67 W/m 4,8 C 6,2 C 9,7 km/h (2 Bft) 91 %
06.11.2014 09:20 6,2 C 6,2 C 6,2 C 91 % 1012,8 hPa 0,0 l/m 1,6 km/h (1 Bft) SW 225 0 min 0,000 mm 105 W/m 4,8 C 6,2 C 8,0 km/h (2 Bft) 100 %
06.11.2014 09:30 6,3 C 6,2 C 6,3 C 91 % 1012,9 hPa 0,0 l/m 1,6 km/h (1 Bft) W 270 0 min 0,000 mm 111 W/m 4,9 C 6,3 C 8,0 km/h (2 Bft) 100 %
06.11.2014 09:40 6,3 C 6,3 C 6,3 C 91 % 1012,9 hPa 0,0 l/m 1,6 km/h (1 Bft) W-SW 247 0 min 0,000 mm 107 W/m 4,9 C 6,3 C 8,0 km/h (2 Bft) 100 %
06.11.2014 09:50 6,4 C 6,3 C 6,4 C 91 % 1012,9 hPa 0,0 l/m 1,6 km/h (1 Bft) W-SW 247 0 min 0,000 mm 139 W/m 5,0 C 6,4 C 8,0 km/h (2 Bft) 100 %
06.11.2014 10:00 6,5 C 6,4 C 6,5 C 91 % 1012,9 hPa 0,0 l/m 3,2 km/h (1 Bft) S-SW 202 0 min 0,025 mm 83 W/m 5,1 C 6,5 C 8,0 km/h (2 Bft) 100 %
06.11.2014 10:10 6,6 C 6,5 C 6,6 C 91 % 1013,0 hPa 0,0 l/m 3,2 km/h (1 Bft) SW 225 0 min 0,000 mm 120 W/m 5,2 C 6,6 C 8,0 km/h (2 Bft) 100 %
06.11.2014 10:20 6,6 C 6,5 C 6,6 C 91 % 1013,2 hPa 0,0 l/m 3,2 km/h (1 Bft) SW 225 10 min 0,000 mm 304 W/m 5,2 C 6,6 C 9,7 km/h (2 Bft) 100 %
06.11.2014 10:30 7,1 C 6,6 C 7,1 C 91 % 1013,2 hPa 0,0 l/m 1,6 km/h (1 Bft) S-SW 202 10 min 0,000 mm 362 W/m 5,7 C 7,1 C 8,0 km/h (2 Bft) 100 %
06.11.2014 10:40 7,2 C 7,1 C 7,3 C 92 % 1013,4 hPa 0,0 l/m 1,6 km/h (1 Bft) S-SW 202 10 min 0,000 mm 236 W/m 6,0 C 7,2 C 9,7 km/h (2 Bft) 100 %
06.11.2014 10:50 7,1 C 7,1 C 7,3 C 92 % 1013,5 hPa 0,0 l/m 3,2 km/h (1 Bft) S-SW 202 10 min 0,000 mm 193 W/m 5,9 C 7,1 C 8,0 km/h (2 Bft) 100 %
06.11.2014 11:00 7,2 C 7,1 C 7,2 C 92 % 1013,2 hPa 0,0 l/m 3,2 km/h (1 Bft) S-SW 202 10 min 0,076 mm 221 W/m 6,0 C 7,2 C 9,7 km/h (2 Bft) 100 %
06.11.2014 11:10 7,2 C 7,2 C 7,2 C 92 % 1013,5 hPa 0,0 l/m 4,8 km/h (1 Bft) S-SW 202 10 min 0,000 mm 221 W/m 6,0 C 7,2 C 9,7 km/h (2 Bft) 100 %
06.11.2014 11:20 7,4 C 7,2 C 7,4 C 92 % 1013,5 hPa 0,0 l/m 4,8 km/h (1 Bft) S-SW 202 10 min 0,000 mm 345 W/m 6,2 C 7,4 C 9,7 km/h (2 Bft) 100 %
06.11.2014 11:30 7,6 C 7,4 C 7,6 C 92 % 1013,4 hPa 0,0 l/m 4,8 km/h (1 Bft) S-SW 202 10 min 0,000 mm 285 W/m 6,4 C 7,6 C 11,3 km/h (2 Bft) 100 %
06.11.2014 11:40 7,7 C 7,6 C 7,8 C 91 % 1013,4 hPa 0,0 l/m 4,8 km/h (1 Bft) S-SO 157 10 min 0,000 mm 378 W/m 6,3 C 7,7 C 9,7 km/h (2 Bft) 100 %
06.11.2014 11:50 7,4 C 7,4 C 7,7 C 90 % 1013,5 hPa 0,0 l/m 4,8 km/h (1 Bft) SW 225 10 min 0,000 mm 167 W/m 5,9 C 7,4 C 11,3 km/h (2 Bft) 100 %
06.11.2014 12:00 7,3 C 7,3 C 7,4 C 91 % 1013,3 hPa 0,0 l/m 3,2 km/h (1 Bft) SW 225 0 min 0,102 mm 128 W/m 5,9 C 7,3 C 9,7 km/h (2 Bft) 97 %
06.11.2014 12:10 7,3 C 7,3 C 7,3 C 91 % 1013,2 hPa 0,0 l/m 1,6 km/h (1 Bft) S-SW 202 10 min 0,000 mm 178 W/m 5,9 C 7,3 C 8,0 km/h (2 Bft) 98 %
06.11.2014 12:20 7,4 C 7,3 C 7,4 C 90 % 1013,2 hPa 0,0 l/m 4,8 km/h (1 Bft) S-SW 202 10 min 0,000 mm 204 W/m 5,9 C 7,4 C 11,3 km/h (2 Bft) 97 %
06.11.2014 12:30 7,4 C 7,4 C 7,4 C 89 % 1013,3 hPa 0,0 l/m 1,6 km/h (1 Bft) S-SW 202 10 min 0,000 mm 200 W/m 5,7 C 7,4 C 8,0 km/h (2 Bft) 98 %
06.11.2014 12:40 7,6 C 7,4 C 7,6 C 90 % 1013,3 hPa 0,0 l/m 3,2 km/h (1 Bft) S-SW 202 10 min 0,000 mm 202 W/m 6,1 C 7,6 C 8,0 km/h (2 Bft) 98 %
06.11.2014 12:50 7,7 C 7,6 C 7,7 C 89 % 1013,4 hPa 0,0 l/m 3,2 km/h (1 Bft) SW 225 10 min 0,000 mm 234 W/m 6,0 C 7,7 C 9,7 km/h (2 Bft) 97 %
06.11.2014 13:00 7,8 C 7,7 C 7,8 C 89 % 1013,3 hPa 0,0 l/m 1,6 km/h (1 Bft) SW 225 10 min 0,076 mm 206 W/m 6,1 C 7,8 C 8,0 km/h (2 Bft) 98 %
06.11.2014 13:10 7,8 C 7,7 C 7,8 C 89 % 1013,1 hPa 0,0 l/m 3,2 km/h (1 Bft) SW 225 10 min 0,000 mm 163 W/m 6,1 C 7,8 C 9,7 km/h (2 Bft) 97 %
06.11.2014 13:20 7,7 C 7,7 C 7,8 C 87 % 1012,9 hPa 0,0 l/m 3,2 km/h (1 Bft) W-SW 247 10 min 0,000 mm 160 W/m 5,7 C 7,7 C 6,4 km/h (2 Bft) 98 %
06.11.2014 13:30 7,7 C 7,7 C 7,7 C 88 % 1013,0 hPa 0,0 l/m 0,0 km/h (0 Bft) W-SW 247 10 min 0,000 mm 202 W/m 5,8 C 7,7 C 4,8 km/h (1 Bft) 97 %
06.11.2014 13:40 7,7 C 7,7 C 7,7 C 88 % 1012,9 hPa 0,0 l/m 0,0 km/h (0 Bft) W-SW 247 0 min 0,000 mm 146 W/m 5,8 C 7,7 C 8,0 km/h (2 Bft) 98 %
06.11.2014 13:50 7,8 C 7,7 C 7,8 C 88 % 1012,8 hPa 0,0 l/m 0,0 km/h (0 Bft) W-SW 247 10 min 0,000 mm 176 W/m 5,9 C 7,8 C 6,4 km/h (2 Bft) 98 %
06.11.2014 14:00 7,8 C 7,8 C 7,9 C 87 % 1012,8 hPa 0,0 l/m 0,0 km/h (0 Bft) W-NW 292 10 min 0,076 mm 186 W/m 5,8 C 7,8 C 4,8 km/h (1 Bft) 97 %
06.11.2014 14:10 8,0 C 7,8 C 8,0 C 87 % 1012,8 hPa 0,0 l/m 1,6 km/h (1 Bft) W-SW 247 10 min 0,000 mm 281 W/m 6,0 C 8,0 C 4,8 km/h (1 Bft) 98 %
06.11.2014 14:20 8,2 C 8,0 C 8,2 C 86 % 1012,8 hPa 0,0 l/m 0,0 km/h (0 Bft) W-SW 247 10 min 0,000 mm 341 W/m 6,0 C 8,2 C 3,2 km/h (1 Bft) 97 %
06.11.2014 14:30 8,6 C 8,2 C 8,6 C 86 % 1012,7 hPa 0,0 l/m 1,6 km/h (1 Bft) SW 225 10 min 0,000 mm 371 W/m 6,4 C 8,6 C 8,0 km/h (2 Bft) 98 %
06.11.2014 14:40 8,8 C 8,6 C 8,8 C 84 % 1012,9 hPa 0,0 l/m 3,2 km/h (1 Bft) S-SW 202 10 min 0,000 mm 290 W/m 6,2 C 8,8 C 9,7 km/h (2 Bft) 97 %
06.11.2014 14:50 9,0 C 8,8 C 9,0 C 83 % 1012,9 hPa 0,0 l/m 3,2 km/h (1 Bft) W-SW 247 0 min 0,000 mm 128 W/m 6,3 C 9,0 C 9,7 km/h (2 Bft) 98 %
06.11.2014 15:00 9,2 C 9,0 C 9,3 C 82 % 1012,7 hPa 0,0 l/m 1,6 km/h (1 Bft) S-SW 202 0 min 0,102 mm 118 W/m 6,3 C 9,2 C 6,4 km/h (2 Bft) 98 %
06.11.2014 15:10 9,1 C 9,1 C 9,2 C 82 % 1012,8 hPa 0,0 l/m 1,6 km/h (1 Bft) S-SO 157 0 min 0,000 mm 113 W/m 6,2 C 9,1 C 6,4 km/h (2 Bft) 97 %
06.11.2014 15:20 9,0 C 9,0 C 9,1 C 82 % 1012,8 hPa 0,0 l/m 1,6 km/h (1 Bft) S-SW 202 0 min 0,000 mm 91 W/m 6,1 C 9,0 C 6,4 km/h (2 Bft) 98 %
06.11.2014 15:30 8,9 C 8,9 C 9,0 C 82 % 1012,8 hPa 0,0 l/m 0,0 km/h (0 Bft) SW 225 0 min 0,000 mm 70 W/m 6,0 C 8,9 C 4,8 km/h (1 Bft) 97 %
06.11.2014 15:40 8,8 C 8,8 C 8,9 C 82 % 1012,9 hPa 0,0 l/m 1,6 km/h (1 Bft) W 270 0 min 0,000 mm 60 W/m 5,9 C 8,8 C 6,4 km/h (2 Bft) 97 %
06.11.2014 15:50 8,6 C 8,6 C 8,8 C 84 % 1012,9 hPa 0,0 l/m 0,0 km/h (0 Bft) W-SW 247 0 min 0,000 mm 79 W/m 6,1 C 8,6 C 1,6 km/h (1 Bft) 98 %
06.11.2014 16:00 8,4 C 8,4 C 8,6 C 84 % 1012,9 hPa 0,0 l/m 0,0 km/h (0 Bft) N 0 0 min 0,025 mm 81 W/m 5,9 C 8,4 C 0,0 km/h (0 Bft) 98 %
06.11.2014 16:10 8,1 C 8,1 C 8,4 C 84 % 1012,9 hPa 0,0 l/m 0,0 km/h (0 Bft) W-SW 247 0 min 0,000 mm 35 W/m 5,6 C 8,1 C 3,2 km/h (1 Bft) 98 %
06.11.2014 16:20 7,9 C 7,9 C 8,1 C 85 % 1012,9 hPa 0,0 l/m 0,0 km/h (0 Bft) N 0 0 min 0,000 mm 23 W/m 5,5 C 7,9 C 0,0 km/h (0 Bft) 97 %
06.11.2014 16:30 7,8 C 7,8 C 7,9 C 86 % 1012,9 hPa 0,0 l/m 0,0 km/h (0 Bft) W-SW 247 0 min 0,000 mm 21 W/m 5,6 C 7,8 C 3,2 km/h (1 Bft) 98 %
06.11.2014 16:40 7,5 C 7,5 C 7,8 C 87 % 1012,8 hPa 0,0 l/m 0,0 km/h (0 Bft) N 0 0 min 0,000 mm 14 W/m 5,5 C 7,5 C 0,0 km/h (0 Bft) 97 %
06.11.2014 16:50 7,1 C 7,1 C 7,5 C 88 % 1013,0 hPa 0,0 l/m 0,0 km/h (0 Bft) N 0 0 min 0,000 mm 7 W/m 5,2 C 7,1 C 0,0 km/h (0 Bft) 97 %
06.11.2014 17:00 6,7 C 6,7 C 7,1 C 89 % 1013,2 hPa 0,0 l/m 0,0 km/h (0 Bft) N 0 0 min 0,000 mm 5 W/m 5,0 C 6,7 C 0,0 km/h (0 Bft) 97 %
06.11.2014 17:10 6,4 C 6,4 C 6,7 C 89 % 1013,3 hPa 0,0 l/m 0,0 km/h (0 Bft) N 0 0 min 0,000 mm 0 W/m 4,7 C 6,4 C 0,0 km/h (0 Bft) 97 %
06.11.2014 17:20 6,1 C 6,1 C 6,4 C 90 % 1013,4 hPa 0,0 l/m 0,0 km/h (0 Bft) N 0 0 min 0,000 mm 0 W/m 4,6 C 6,1 C 0,0 km/h (0 Bft) 98 %
06.11.2014 17:30 5,9 C 5,8 C 6,1 C 90 % 1013,4 hPa 0,0 l/m 0,0 km/h (0 Bft) N 0 0 min 0,000 mm 0 W/m 4,4 C 5,9 C 0,0 km/h (0 Bft) 97 %
06.11.2014 17:40 5,6 C 5,6 C 5,8 C 90 % 1013,6 hPa 0,0 l/m 0,0 km/h (0 Bft) N 0 0 min 0,000 mm 0 W/m 4,1 C 5,6 C 0,0 km/h (0 Bft) 98 %
06.11.2014 17:50 5,3 C 5,3 C 5,6 C 91 % 1013,6 hPa 0,0 l/m 0,0 km/h (0 Bft) N 0 0 min 0,000 mm 0 W/m 4,0 C 5,3 C 0,0 km/h (0 Bft) 97 %
06.11.2014 18:00 5,3 C 5,3 C 5,3 C 91 % 1013,6 hPa 0,0 l/m 0,0 km/h (0 Bft) O-SO 112 0 min 0,000 mm 0 W/m 4,0 C 5,3 C 4,8 km/h (1 Bft) 98 %
06.11.2014 18:10 5,3 C 5,3 C 5,3 C 91 % 1013,6 hPa 0,0 l/m 0,0 km/h (0 Bft) O-SO 112 0 min 0,000 mm 0 W/m 4,0 C 5,3 C 3,2 km/h (1 Bft) 99 %
06.11.2014 18:20 5,1 C 5,1 C 5,3 C 91 % 1013,8 hPa 0,0 l/m 1,6 km/h (1 Bft) N 360 0 min 0,000 mm 0 W/m 3,8 C 5,1 C 4,8 km/h (1 Bft) 100 %
06.11.2014 18:30 4,7 C 4,7 C 5,1 C 91 % 1013,8 hPa 0,0 l/m 0,0 km/h (0 Bft) N 360 0 min 0,000 mm 0 W/m 3,4 C 4,7 C 1,6 km/h (1 Bft) 100 %
06.11.2014 18:40 4,6 C 4,6 C 4,7 C 92 % 1013,9 hPa 0,0 l/m 0,0 km/h (0 Bft) N 0 0 min 0,000 mm 0 W/m 3,4 C 4,6 C 0,0 km/h (0 Bft) 98 %
06.11.2014 18:50 4,4 C 4,4 C 4,6 C 91 % 1014,0 hPa 0,0 l/m 0,0 km/h (0 Bft) N 0 0 min 0,000 mm 0 W/m 3,1 C 4,4 C 0,0 km/h (0 Bft) 98 %
06.11.2014 19:00 4,3 C 4,3 C 4,4 C 92 % 1013,9 hPa 0,0 l/m 0,0 km/h (0 Bft) N 0 0 min 0,000 mm 0 W/m 3,1 C 4,3 C 0,0 km/h (0 Bft) 97 %
06.11.2014 19:10 4,0 C 4,0 C 4,3 C 91 % 1014,0 hPa 0,0 l/m 0,0 km/h (0 Bft) N 360 0 min 0,000 mm 0 W/m 2,7 C 4,0 C 3,2 km/h (1 Bft) 98 %
06.11.2014 19:20 3,8 C 3,8 C 4,0 C 92 % 1013,9 hPa 0,0 l/m 0,0 km/h (0 Bft) N 360 0 min 0,000 mm 0 W/m 2,6 C 3,8 C 1,6 km/h (1 Bft) 98 %
06.11.2014 19:30 3,7 C 3,7 C 3,8 C 91 % 1013,9 hPa 0,0 l/m 0,0 km/h (0 Bft) N 0 0 min 0,000 mm 0 W/m 2,4 C 3,7 C 0,0 km/h (0 Bft) 98 %
06.11.2014 19:40 3,7 C 3,7 C 3,7 C 91 % 1013,7 hPa 0,0 l/m 0,0 km/h (0 Bft) N 0 0 min 0,000 mm 0 W/m 2,4 C 3,7 C 0,0 km/h (0 Bft) 89 %
06.11.2014 19:50 3,4 C 3,4 C 3,7 C 92 % 1013,6 hPa 0,0 l/m 0,8 km/h (0 Bft) N 11 0 min 0,001 mm 0 W/m 2,2 C 3,4 C 1,6 km/h (1 Bft) 100 %
06.11.2014 20:00 3,2 C 3,2 C 3,4 C 92 % 1013,7 hPa 0,0 l/m 0,0 km/h (0 Bft) N 11 0 min 0,000 mm 0 W/m 2,0 C 3,2 C 0,0 km/h (0 Bft) 100 %
06.11.2014 20:10 2,9 C 2,9 C 3,2 C 92 % 1013,6 hPa 0,0 l/m 0,0 km/h (0 Bft) N 11 0 min 0,000 mm 0 W/m 1,7 C 2,9 C 0,0 km/h (0 Bft) 100 %
06.11.2014 20:20 2,8 C 2,8 C 2,9 C 91 % 1013,8 hPa 0,0 l/m 0,0 km/h (0 Bft) N 11 0 min 0,000 mm 0 W/m 1,5 C 2,8 C 0,0 km/h (0 Bft) 100 %
06.11.2014 20:30 2,7 C 2,7 C 2,8 C 91 % 1013,8 hPa 0,0 l/m 0,0 km/h (0 Bft) N 11 0 min 0,000 mm 0 W/m 1,4 C 2,7 C 0,0 km/h (0 Bft) 100 %
06.11.2014 20:40 2,6 C 2,6 C 2,7 C 91 % 1013,7 hPa 0,0 l/m 0,1 km/h (0 Bft) N 11 0 min 0,000 mm 0 W/m 1,3 C 2,6 C 1,6 km/h (1 Bft) 92 %
06.11.2014 20:50 2,4 C 2,4 C 2,6 C 91 % 1013,7 hPa 0,0 l/m 0,1 km/h (0 Bft) N 11 0 min 0,000 mm 0 W/m 1,1 C 2,4 C 1,6 km/h (1 Bft) 99 %
06.11.2014 21:00 2,4 C 2,4 C 2,4 C 91 % 1013,8 hPa 0,0 l/m 0,0 km/h (0 Bft) N 11 0 min 0,000 mm 0 W/m 1,1 C 2,4 C 0,0 km/h (0 Bft) 100 %
06.11.2014 21:10 2,3 C 2,3 C 2,4 C 91 % 1013,8 hPa 0,0 l/m 0,1 km/h (0 Bft) N 11 0 min 0,000 mm 0 W/m 1,0 C 2,3 C 1,6 km/h (1 Bft) 100 %
06.11.2014 21:20 2,1 C 2,1 C 2,3 C 91 % 1013,6 hPa 0,0 l/m 0,0 km/h (0 Bft) N 11 0 min 0,000 mm 0 W/m 0,8 C 2,1 C 0,0 km/h (0 Bft) 100 %
06.11.2014 21:30 1,9 C 1,9 C 2,1 C 91 % 1013,5 hPa 0,0 l/m 0,0 km/h (0 Bft) N 0 0 min 0,000 mm 0 W/m 0,6 C 1,9 C 0,0 km/h (0 Bft) 97 %
06.11.2014 21:40 1,8 C 1,8 C 1,9 C 91 % 1013,6 hPa 0,0 l/m 0,0 km/h (0 Bft) N 360 0 min 0,000 mm 0 W/m 0,5 C 1,8 C 1,6 km/h (1 Bft) 98 %
06.11.2014 21:50 1,5 C 1,5 C 1,7 C 91 % 1013,5 hPa 0,0 l/m 0,0 km/h (0 Bft) N 360 0 min 0,000 mm 0 W/m 0,2 C 1,5 C 3,2 km/h (1 Bft) 97 %
06.11.2014 22:00 1,4 C 1,4 C 1,5 C 91 % 1013,3 hPa 0,0 l/m 0,0 km/h (0 Bft) N 0 0 min 0,000 mm 0 W/m 0,1 C 1,4 C 0,0 km/h (0 Bft) 98 %
06.11.2014 22:10 1,3 C 1,3 C 1,4 C 91 % 1013,3 hPa 0,0 l/m 0,0 km/h (0 Bft) N 360 0 min 0,000 mm 0 W/m -0,0 C 1,3 C 1,6 km/h (1 Bft) 98 %
06.11.2014 22:20 1,2 C 1,2 C 1,3 C 91 % 1013,2 hPa 0,0 l/m 0,0 km/h (0 Bft) N 360 0 min 0,000 mm 0 W/m -0,1 C 1,2 C 1,6 km/h (1 Bft) 97 %
06.11.2014 22:30 1,1 C 1,1 C 1,2 C 91 % 1013,2 hPa 0,0 l/m 0,0 km/h (0 Bft) N 360 0 min 0,000 mm 0 W/m -0,2 C 1,1 C 3,2 km/h (1 Bft) 98 %
06.11.2014 22:40 1,0 C 1,0 C 1,1 C 91 % 1013,3 hPa 0,0 l/m 0,0 km/h (0 Bft) N 360 0 min 0,000 mm 0 W/m -0,3 C 1,0 C 3,2 km/h (1 Bft) 97 %
06.11.2014 22:50 0,9 C 0,9 C 1,0 C 91 % 1013,2 hPa 0,0 l/m 0,0 km/h (0 Bft) N 0 0 min 0,000 mm 0 W/m -0,4 C 0,9 C 0,0 km/h (0 Bft) 98 %
06.11.2014 23:00 0,8 C 0,8 C 0,9 C 91 % 1013,0 hPa 0,0 l/m 0,0 km/h (0 Bft) N 360 0 min 0,000 mm 0 W/m -0,5 C 0,8 C 1,6 km/h (1 Bft) 97 %
06.11.2014 23:10 0,7 C 0,7 C 0,8 C 91 % 1013,1 hPa 0,0 l/m 0,0 km/h (0 Bft) N 0 0 min 0,000 mm 0 W/m -0,6 C 0,7 C 0,0 km/h (0 Bft) 98 %
06.11.2014 23:20 0,6 C 0,6 C 0,7 C 91 % 1013,0 hPa 0,0 l/m 0,0 km/h (0 Bft) N 360 0 min 0,000 mm 0 W/m -0,7 C 0,6 C 1,6 km/h (1 Bft) 98 %
06.11.2014 23:30 0,6 C 0,6 C 0,6 C 91 % 1013,0 hPa 0,0 l/m 0,0 km/h (0 Bft) N 360 0 min 0,000 mm 0 W/m -0,7 C 0,6 C 1,6 km/h (1 Bft) 97 %
06.11.2014 23:40 0,5 C 0,5 C 0,6 C 91 % 1012,9 hPa 0,0 l/m 0,0 km/h (0 Bft) N 0 0 min 0,000 mm 0 W/m -0,8 C 0,5 C 0,0 km/h (0 Bft) 98 %
06.11.2014 23:50 0,4 C 0,4 C 0,5 C 91 % 1012,8 hPa 0,0 l/m 0,0 km/h (0 Bft) N 360 0 min 0,000 mm 0 W/m -0,9 C 0,4 C 1,6 km/h (1 Bft) 97 %
_ Min-Zeit 23:50 23:50 23:50 15:00 00:00 - 00:00 - - - - - 23:50 23:50 01:30 00:10
Minimum _ 0,4 C 0,4 C 0,5 C 82 % 1008,4 hPa - 0,0 km/h (0 Bft) - - - - - -0,9 C 0,4 C 0,0 km/h (0 Bft) 80 %
_ Max-Zeit 15:00 15:10 15:00 10:40 18:50 00:00 03:20 - - 10:20 12:00 11:40 14:30 15:00 03:20 00:20
Maximum _ 9,3 C 9,1 C 9,3 C 92 % 1014,0 hPa 0,2 l/m 4,8 km/h
W (1 Bft)
- - 10 min 0,102 mm 378 W/m 6,4 C 9,2 C 16,1 km/h
SW (3 Bft)
100 %
Durchschnitt _ 5,7 C 5,7 C 5,8 C 90 % 1012,1 hPa #1,4 l/m 1,3 km/h (1 Bft) S-SW - #4:10 h #0,508 mm 143 W/m 4,2 C 5,7 C 5,3 km/h (1 Bft) 98 %
PRIVATE WETTERSTATION BILLIGHEIM-ALLFELD - www.neckar-odenwald-wetter.de - Holger Sonntag